STARLINK-36736

Last updated on Wed Mar 25 2026 00:02:05 GMT+0000 (Coordinated Universal Time)

1 67911U 26036H 26083.50002314 -.02263713 00000+0 -81201-1 0 9993 2 67911 43.0000 161.7189 0000995 276.5148 168.8447 15.31689573 6026
UTC large
Height (km)
Speed (km/s)
/
Latitude / Longitude
Inclination (degrees)
Orbital Period (minutes)
Azimuth
Elevation
Range (km)
Doppler Factor

Next 0 passes for location: London (51.5072 / 0.1276)

Sorry there are no passes over London.